QPF
0.02 0.02 0.01 0.01 0.02 0.02 0.01 0.00 0.01 0.01 0.01 0.00 0.00 0.00 0.01 0.01 0.01 0.01 0.01 0.01 0.00 0.00 0.00 0.00 0.01 0.01 0.01 0.03 0.05 0.07 0.07 0.05 0.05 0.05 0.05 0.06 0.07 0.05 0.05 0.05 0.06 0.07 0.08 0.10
0.02 0.02 0.01 0.00 0.01 0.02 0.01 0.01 0.00 0.00 0.00 0.00 0.00 0.00 0.00 0.01 0.01 0.01 0.01 0.01 0.00 0.00 0.00 0.00 0.00 0.01 0.02 0.03 0.03 0.05 0.06 0.06 0.06 0.04 0.04 0.04 0.05 0.05 0.04 0.05 0.05 0.07 0.09 0.11
0.02 0.01 0.01 0.01 0.01 0.01 0.02 0.01 0.01 0.00 0.00 0.00 0.00 0.00 0.00 0.00 0.01 0.02 0.02 0.01 0.00 0.00 0.00 0.00 0.00 0.01 0.01 0.02 0.03 0.03 0.04 0.05 0.05 0.05 0.04 0.04 0.04 0.04 0.05 0.06 0.07 0.08 0.10 0.12
0.01 0.01 0.01 0.01 0.01 0.01 0.02 0.01 0.01 0.00 0.00 0.00 0.00 0.00 0.00 0.00 0.00 0.01 0.02 0.02 0.01 0.00 0.00 0.00 0.00 0.00 0.01 0.01 0.02 0.03 0.03 0.04 0.04 0.05 0.06 0.05 0.04 0.03 0.03 0.03 0.05 0.06 0.08 0.11
0.01 0.01 0.01 0.02 0.01 0.01 0.01 0.01 0.01 0.01 0.01 0.00 0.00 0.00 0.00 0.00 0.00 0.01 0.01 0.02 0.01 0.00 0.00 0.00 0.00 0.00 0.00 0.01 0.01 0.02 0.02 0.03 0.03 0.03 0.04 0.05 0.05 0.03 0.02 0.02 0.02 0.03 0.05 0.06
0.01 0.01 0.01 0.01 0.01 0.01 0.01 0.01 0.02 0.02 0.02 0.02 0.00 0.00 0.00 0.00 0.00 0.00 0.01 0.01 0.01 0.01 0.00 0.00 0.00 0.00 0.00 0.01 0.01 0.02 0.02 0.02 0.02 0.02 0.02 0.03 0.04 0.03 0.03 0.02 0.02 0.02 0.03 0.04
0.01 0.01 0.01 0.01 0.01 0.01 0.02 0.03 0.05 0.05 0.05 0.03 0.00 0.00 0.00 0.00 0.00 0.00 0.00 0.01 0.01 0.01 0.01 0.00 0.00 0.00 0.01 0.01 0.01 0.01 0.02 0.02 0.02 0.02 0.02 0.02 0.02 0.02 0.03 0.03 0.03 0.03 0.03 0.03
0.02 0.02 0.01 0.01 0.01 0.02 0.02 0.03 0.04 0.04 0.03 0.01 0.00 0.00 0.00 0.00 0.00 0.00 0.00 0.01 0.01 0.01 0.01 0.01 0.01 0.01 0.01 0.01 0.01 0.01 0.01 0.02 0.02 0.01 0.01 0.01 0.01 0.01 0.02 0.02 0.02 0.03 0.03 0.04
0.01 0.01 0.01 0.01 0.01 0.02 0.02 0.03 0.02 0.03 0.02 0.01 0.00 0.00 0.00 0.00 0.00 0.00 0.00 0.01 0.01 0.01 0.01 0.01 0.01 0.01 0.01 0.01 0.01 0.01 0.01 0.01 0.01 0.01 0.01 0.01 0.01 0.01 0.01 0.01 0.02 0.02 0.02 0.03
0.01 0.01 0.01 0.00 0.01 0.01 0.02 0.02 0.03 0.04 0.03 0.01 0.01 0.00 0.00 0.00 0.00 0.00 0.01 0.01 0.01 0.01 0.01 0.01 0.01 0.01 0.01 0.01 0.01 0.01 0.01 0.01 0.01 0.02 0.02 0.02 0.02 0.01 0.01 0.01 0.02 0.02 0.02 0.02
0.01 0.01 0.01 0.01 0.01 0.01 0.01 0.02 0.03 0.04 0.02 0.02 0.01 0.00 0.00 0.00 0.00 0.00 0.01 0.01 0.01 0.01 0.01 0.01 0.01 0.01 0.01 0.01 0.01 0.01 0.02 0.02 0.02 0.02 0.02 0.02 0.02 0.02 0.02 0.01 0.01 0.01 0.02 0.02
0.01 0.02 0.02 0.01 0.00 0.00 0.00 0.01 0.02 0.04 0.03 0.01 0.01 0.01 0.00 0.00 0.00 0.00 0.01 0.01 0.01 0.01 0.01 0.01 0.01 0.01 0.01 0.01 0.01 0.01 0.01 0.01 0.01 0.01 0.02 0.02 0.02 0.02 0.02 0.02 0.01 0.01 0.01 0.01
0.03 0.04 0.04 0.02 0.02 0.01 0.01 0.01 0.01 0.02 0.03 0.02 0.01 0.01 0.00 0.00 0.00 0.00 0.01 0.01 0.01 0.01 0.01 0.01 0.01 0.01 0.01 0.01 0.01 0.01 0.01 0.01 0.01 0.01 0.01 0.01 0.02 0.02 0.02 0.01 0.01 0.01 0.01 0.01
0.04 0.05 0.03 0.02 0.01 0.01 0.01 0.00 0.01 0.02 0.03 0.02 0.01 0.00 0.00 0.00 0.00 0.00 0.00 0.00 0.01 0.01 0.01 0.01 0.01 0.01 0.01 0.01 0.01 0.01 0.01 0.01 0.01 0.01 0.01 0.01 0.01 0.01 0.01 0.02 0.02 0.02 0.02 0.02
0.06 0.07 0.02 0.01 0.01 0.01 0.01 0.00 0.00 0.01 0.01 0.02 0.01 0.00 0.00 0.00 0.00 0.00 0.00 0.00 0.01 0.01 0.01 0.01 0.01 0.01 0.01 0.01 0.00 0.00 0.00 0.00 0.00 0.01 0.01 0.01 0.01 0.01 0.01 0.01 0.02 0.02 0.02 0.02
0.05 0.06 0.04 0.02 0.01 0.01 0.01 0.00 0.00 0.00 0.00 0.01 0.01 0.00 0.00 0.00 0.00 0.00 0.00 0.00 0.00 0.00 0.00 0.00 0.00 0.01 0.01 0.00 0.00 0.00 0.00 0.00 0.00 0.00 0.00 0.01 0.01 0.01 0.01 0.01 0.02 0.03 0.03 0.03
0.05 0.06 0.05 0.03 0.01 0.01 0.01 0.00 0.00 0.00 0.00 0.00 0.01 0.00 0.00 0.00 0.00 0.00 0.00 0.00 0.00 0.00 0.00 0.00 0.00 0.01 0.00 0.00 0.00 0.00 0.00 0.00 0.00 0.00 0.00 0.00 0.00 0.01 0.01 0.01 0.02 0.03 0.04 0.05
0.04 0.05 0.07 0.05 0.03 0.03 0.01 0.00 0.00 0.00 0.00 0.00 0.00 0.00 0.00 0.00 0.00 0.00 0.00 0.00 0.00 0.00 0.00 0.00 0.01 0.00 0.00 0.00 0.00 0.00 0.00 0.00 0.00 0.00 0.00 0.00 0.00 0.00 0.00 0.00 0.01 0.02 0.03 0.04
0.03 0.04 0.08 0.07 0.05 0.02 0.01 0.00 0.00 0.01 0.01 0.00 0.00 0.00 0.00 0.00 0.00 0.00 0.00 0.00 0.00 0.00 0.01 0.01 0.00 0.00 0.00 0.00 0.00 0.00 0.00 0.00 0.00 0.00 0.00 0.00 0.00 0.00 0.00 0.00 0.00 0.00 0.01 0.02
0.03 0.04 0.08 0.08 0.06 0.03 0.00 0.00 0.00 0.01 0.01 0.00 0.00 0.01 0.00 0.01 0.01 0.00 0.00 0.00 0.00 0.01 0.01 0.00 0.00 0.00 0.00 0.00 0.00 0.00 0.00 0.00 0.00 0.00 0.00 0.00 0.00 0.00 0.00 0.00 0.00 0.00 0.01 0.01
0.05 0.06 0.08 0.07 0.05 0.02 0.00 0.00 0.01 0.03 0.01 0.01 0.01 0.01 0.01 0.01 0.01 0.00 0.00 0.00 0.00 0.01 0.00 0.00 0.00 0.00 0.00 0.00 0.00 0.00 0.00 0.00 0.00 0.00 0.00 0.00 0.00 0.00 0.01 0.01 0.01 0.01 0.01 0.01
0.03 0.04 0.04 0.05 0.04 0.02 0.01 0.01 0.02 0.02 0.01 0.01 0.01 0.00 0.01 0.01 0.01 0.01 0.01 0.00 0.00 0.00 0.00 0.00 0.00 0.00 0.00 0.00 0.00 0.01 0.01 0.01 0.01 0.01 0.00 0.00 0.00 0.01 0.01 0.01 0.01 0.01 0.01 0.01
0.02 0.03 0.02 0.02 0.03 0.02 0.01 0.01 0.01 0.01 0.02 0.01 0.00 0.00 0.00 0.01 0.00 0.00 0.00 0.00 0.00 0.00 0.00 0.00 0.00 0.01 0.01 0.01 0.01 0.00 0.01 0.01 0.01 0.01 0.01 0.01 0.01 0.01 0.01 0.01 0.01 0.01 0.01 0.01
0.03 0.03 0.03 0.03 0.03 0.03 0.02 0.01 0.01 0.01 0.01 0.01 0.00 0.01 0.01 0.01 0.01 0.01 0.01 0.00 0.00 0.00 0.00 0.00 0.00 0.00 0.01 0.01 0.01 0.00 0.00 0.01 0.01 0.01 0.01 0.01 0.01 0.01 0.01 0.01 0.01 0.01 0.01 0.01
0.02 0.02 0.03 0.04 0.03 0.03 0.02 0.02 0.02 0.01 0.01 0.00 0.00 0.01 0.01 0.01 0.01 0.01 0.01 0.00 0.00 0.00 0.00 0.00 0.00 0.00 0.01 0.01 0.01 0.01 0.01 0.01 0.01 0.01 0.01 0.01 0.01 0.01 0.01 0.01 0.01 0.01 0.01 0.01
0.01 0.01 0.02 0.03 0.02 0.03 0.02 0.02 0.02 0.01 0.01 0.01 0.01 0.01 0.01 0.01 0.01 0.01 0.01 0.00 0.00 0.00 0.00 0.00 0.00 0.00 0.01 0.01 0.01 0.01 0.01 0.01 0.01 0.01 0.01 0.01 0.01 0.00 0.00 0.00 0.00 0.01 0.01 0.01
MSLP
1017.31 1017.52 1017.80 1018.17 1018.66 1019.26 1020.00 1020.83 1021.75 1022.69 1023.61 1024.49 1025.28 1025.98 1026.58 1027.10 1027.53 1027.90 1028.20 1028.43 1028.58 1028.64 1028.58 1028.41 1028.13 1027.75 1027.28 1026.78 1026.27 1025.80 1025.39 1025.09 1024.89 1024.80 1024.80 1024.86 1024.96 1025.05 1025.11 1025.12 1025.07 1024.96 1024.79 1024.59
1017.81 1017.99 1018.23 1018.56 1019.01 1019.60 1020.33 1021.17 1022.09 1023.03 1023.94 1024.79 1025.55 1026.20 1026.77 1027.26 1027.70 1028.12 1028.51 1028.86 1029.17 1029.38 1029.48 1029.43 1029.24 1028.91 1028.47 1027.96 1027.43 1026.94 1026.52 1026.21 1026.03 1025.95 1025.97 1026.05 1026.15 1026.24 1026.27 1026.23 1026.11 1025.91 1025.66 1025.37
1018.38 1018.54 1018.74 1019.02 1019.43 1019.98 1020.68 1021.49 1022.39 1023.30 1024.17 1024.97 1025.67 1026.27 1026.80 1027.28 1027.75 1028.23 1028.73 1029.22 1029.68 1030.06 1030.31 1030.40 1030.31 1030.05 1029.65 1029.14 1028.61 1028.09 1027.66 1027.34 1027.16 1027.09 1027.13 1027.22 1027.32 1027.40 1027.41 1027.33 1027.17 1026.92 1026.60 1026.24
1019.02 1019.16 1019.32 1019.56 1019.92 1020.43 1021.07 1021.84 1022.68 1023.53 1024.34 1025.06 1025.69 1026.24 1026.72 1027.20 1027.69 1028.24 1028.84 1029.47 1030.08 1030.62 1031.03 1031.26 1031.28 1031.10 1030.74 1030.26 1029.73 1029.20 1028.75 1028.42 1028.23 1028.15 1028.18 1028.27 1028.37 1028.43 1028.43 1028.34 1028.15 1027.87 1027.51 1027.11
1019.70 1019.83 1019.96 1020.17 1020.49 1020.94 1021.54 1022.24 1023.00 1023.77 1024.49 1025.12 1025.67 1026.14 1026.58 1027.04 1027.56 1028.17 1028.86 1029.61 1030.36 1031.05 1031.60 1031.96 1032.09 1032.00 1031.70 1031.26 1030.74 1030.23 1029.77 1029.42 1029.20 1029.11 1029.12 1029.18 1029.26 1029.31 1029.29 1029.19 1028.99 1028.70 1028.34 1027.92
1020.37 1020.49 1020.62 1020.80 1021.09 1021.51 1022.04 1022.68 1023.35 1024.02 1024.64 1025.17 1025.63 1026.03 1026.42 1026.87 1027.40 1028.05 1028.81 1029.65 1030.52 1031.33 1032.00 1032.48 1032.72 1032.71 1032.49 1032.11 1031.64 1031.14 1030.69 1030.33 1030.09 1029.97 1029.94 1029.97 1030.01 1030.04 1030.00 1029.89 1029.69 1029.41 1029.06 1028.66
1020.97 1021.10 1021.23 1021.41 1021.69 1022.08 1022.57 1023.13 1023.72 1024.29 1024.80 1025.23 1025.60 1025.93 1026.28 1026.70 1027.24 1027.92 1028.73 1029.64 1030.58 1031.47 1032.24 1032.81 1033.14 1033.23 1033.10 1032.80 1032.38 1031.93 1031.51 1031.16 1030.91 1030.76 1030.69 1030.67 1030.67 1030.66 1030.60 1030.48 1030.29 1030.03 1029.71 1029.33
1021.46 1021.60 1021.75 1021.96 1022.24 1022.61 1023.06 1023.56 1024.07 1024.55 1024.96 1025.30 1025.59 1025.86 1026.17 1026.58 1027.12 1027.82 1028.66 1029.60 1030.58 1031.53 1032.35 1032.98 1033.39 1033.57 1033.53 1033.32 1032.99 1032.62 1032.25 1031.93 1031.68 1031.51 1031.41 1031.35 1031.30 1031.25 1031.17 1031.04 1030.85 1030.61 1030.32 1029.99
1021.82 1021.99 1022.18 1022.42 1022.72 1023.09 1023.52 1023.96 1024.39 1024.77 1025.09 1025.36 1025.58 1025.81 1026.11 1026.51 1027.06 1027.77 1028.63 1029.58 1030.57 1031.53 1032.37 1033.04 1033.51 1033.76 1033.81 1033.70 1033.47 1033.19 1032.90 1032.63 1032.41 1032.24 1032.12 1032.02 1031.94 1031.85 1031.74 1031.60 1031.42 1031.20 1030.95 1030.66
1022.07 1022.29 1022.53 1022.82 1023.16 1023.53 1023.92 1024.31 1024.66 1024.96 1025.20 1025.39 1025.57 1025.78 1026.07 1026.49 1027.07 1027.79 1028.66 1029.61 1030.59 1031.53 1032.36 1033.04 1033.54 1033.84 1033.97 1033.96 1033.84 1033.67 1033.47 1033.27 1033.10 1032.95 1032.82 1032.71 1032.60 1032.49 1032.36 1032.21 1032.03 1031.83 1031.61 1031.36
1022.29 1022.57 1022.88 1023.23 1023.59 1023.96 1024.32 1024.64 1024.91 1025.11 1025.26 1025.39 1025.54 1025.74 1026.05 1026.51 1027.11 1027.87 1028.74 1029.69 1030.65 1031.56 1032.36 1033.03 1033.53 1033.87 1034.06 1034.14 1034.12 1034.05 1033.95 1033.84 1033.73 1033.61 1033.50 1033.39 1033.27 1033.14 1033.00 1032.84 1032.67 1032.49 1032.29 1032.07
1022.57 1022.93 1023.32 1023.71 1024.10 1024.45 1024.75 1024.98 1025.14 1025.24 1025.30 1025.36 1025.48 1025.68 1026.02 1026.52 1027.18 1027.97 1028.86 1029.81 1030.74 1031.62 1032.39 1033.03 1033.52 1033.88 1034.12 1034.26 1034.34 1034.36 1034.35 1034.32 1034.27 1034.20 1034.12 1034.01 1033.89 1033.76 1033.61 1033.46 1033.31 1033.14 1032.96 1032.77
1023.00 1023.46 1023.91 1024.35 1024.74 1025.04 1025.26 1025.37 1025.40 1025.36 1025.32 1025.31 1025.38 1025.60 1025.97 1026.52 1027.23 1028.07 1028.99 1029.94 1030.86 1031.71 1032.44 1033.05 1033.53 1033.90 1034.17 1034.36 1034.50 1034.60 1034.67 1034.70 1034.71 1034.68 1034.62 1034.53 1034.42 1034.29 1034.16 1034.03 1033.89 1033.75 1033.59 1033.43
1023.66 1024.20 1024.72 1025.17 1025.53 1025.76 1025.85 1025.82 1025.69 1025.51 1025.34 1025.25 1025.28 1025.49 1025.89 1026.48 1027.25 1028.14 1029.10 1030.06 1030.97 1031.79 1032.50 1033.08 1033.55 1033.92 1034.21 1034.44 1034.63 1034.78 1034.90 1034.99 1035.03 1035.03 1034.99 1034.92 1034.82 1034.71 1034.60 1034.49 1034.39 1034.28 1034.16 1034.02
1024.56 1025.17 1025.72 1026.16 1026.45 1026.57 1026.52 1026.32 1026.02 1025.69 1025.39 1025.20 1025.18 1025.37 1025.79 1026.43 1027.24 1028.17 1029.15 1030.12 1031.03 1031.84 1032.53 1033.10 1033.56 1033.93 1034.23 1034.49 1034.72 1034.91 1035.07 1035.18 1035.25 1035.26 1035.24 1035.18 1035.09 1035.01 1034.92 1034.85 1034.78 1034.71 1034.64 1034.54
1025.66 1026.30 1026.84 1027.22 1027.41 1027.40 1027.19 1026.82 1026.35 1025.87 1025.45 1025.18 1025.11 1025.28 1025.71 1026.36 1027.20 1028.15 1029.15 1030.12 1031.03 1031.83 1032.51 1033.06 1033.52 1033.91 1034.23 1034.52 1034.77 1034.99 1035.16 1035.29 1035.37 1035.39 1035.37 1035.31 1035.25 1035.18 1035.13 1035.10 1035.09 1035.07 1035.05 1035.00
1026.86 1027.48 1027.96 1028.25 1028.31 1028.15 1027.78 1027.25 1026.64 1026.04 1025.53 1025.19 1025.08 1025.24 1025.66 1026.33 1027.17 1028.11 1029.10 1030.06 1030.95 1031.73 1032.40 1032.96 1033.43 1033.83 1034.18 1034.49 1034.77 1035.01 1035.20 1035.33 1035.41 1035.43 1035.41 1035.36 1035.31 1035.28 1035.27 1035.28 1035.32 1035.37 1035.40 1035.41
1028.01 1028.56 1028.94 1029.09 1029.01 1028.70 1028.19 1027.54 1026.84 1026.16 1025.60 1025.24 1025.13 1025.28 1025.70 1026.35 1027.17 1028.09 1029.04 1029.96 1030.81 1031.57 1032.22 1032.78 1033.25 1033.68 1034.06 1034.40 1034.70 1034.96 1035.17 1035.31 1035.39 1035.41 1035.39 1035.36 1035.33 1035.32 1035.35 1035.42 1035.52 1035.62 1035.72 1035.77
1028.96 1029.40 1029.63 1029.64 1029.41 1028.97 1028.36 1027.63 1026.89 1026.20 1025.66 1025.32 1025.24 1025.41 1025.84 1026.47 1027.25 1028.12 1029.01 1029.86 1030.66 1031.36 1031.98 1032.53 1033.02 1033.46 1033.87 1034.24 1034.58 1034.86 1035.09 1035.24 1035.33 1035.36 1035.35 1035.32 1035.32 1035.34 1035.41 1035.53 1035.68 1035.84 1035.98 1036.09
1029.61 1029.89 1029.96 1029.81 1029.45 1028.91 1028.24 1027.51 1026.79 1026.16 1025.69 1025.43 1025.42 1025.64 1026.08 1026.70 1027.44 1028.23 1029.04 1029.81 1030.52 1031.17 1031.75 1032.27 1032.76 1033.21 1033.64 1034.05 1034.41 1034.72 1034.97 1035.14 1035.23 1035.28 1035.28 1035.28 1035.29 1035.35 1035.45 1035.61 1035.80 1036.00 1036.18 1036.32
1029.88 1030.00 1029.91 1029.62 1029.15 1028.55 1027.87 1027.18 1026.55 1026.03 1025.70 1025.56 1025.65 1025.94 1026.42 1027.03 1027.72 1028.45 1029.17 1029.85 1030.48 1031.05 1031.58 1032.07 1032.54 1033.00 1033.45 1033.87 1034.25 1034.58 1034.84 1035.02 1035.13 1035.19 1035.21 1035.23 1035.26 1035.34 1035.47 1035.65 1035.86 1036.08 1036.27 1036.43
1029.77 1029.73 1029.50 1029.10 1028.56 1027.95 1027.31 1026.71 1026.21 1025.86 1025.69 1025.71 1025.93 1026.31 1026.83 1027.45 1028.11 1028.78 1029.42 1030.02 1030.56 1031.07 1031.55 1032.01 1032.46 1032.91 1033.35 1033.77 1034.16 1034.49 1034.75 1034.93 1035.05 1035.11 1035.15 1035.18 1035.23 1035.32 1035.46 1035.64 1035.84 1036.05 1036.24 1036.38
1029.32 1029.16 1028.82 1028.35 1027.80 1027.21 1026.66 1026.19 1025.85 1025.68 1025.69 1025.88 1026.23 1026.71 1027.29 1027.93 1028.57 1029.20 1029.79 1030.33 1030.82 1031.28 1031.72 1032.15 1032.58 1033.01 1033.43 1033.83 1034.20 1034.50 1034.74 1034.91 1035.02 1035.08 1035.11 1035.14 1035.19 1035.27 1035.40 1035.56 1035.73 1035.91 1036.05 1036.15
1028.61 1028.37 1027.98 1027.49 1026.96 1026.45 1026.01 1025.69 1025.53 1025.53 1025.72 1026.06 1026.55 1027.13 1027.77 1028.44 1029.09 1029.71 1030.28 1030.80 1031.27 1031.71 1032.13 1032.55 1032.96 1033.36 1033.75 1034.11 1034.43 1034.69 1034.88 1035.01 1035.08 1035.11 1035.12 1035.14 1035.17 1035.22 1035.31 1035.43 1035.54 1035.65 1035.73 1035.76
1027.74 1027.46 1027.06 1026.61 1026.15 1025.75 1025.44 1025.28 1025.29 1025.46 1025.80 1026.28 1026.88 1027.54 1028.25 1028.96 1029.64 1030.28 1030.86 1031.40 1031.89 1032.35 1032.79 1033.20 1033.60 1033.98 1034.32 1034.63 1034.88 1035.06 1035.18 1035.24 1035.26 1035.24 1035.21 1035.18 1035.17 1035.19 1035.22 1035.26 1035.30 1035.32 1035.30 1035.24
1026.78 1026.51 1026.16 1025.78 1025.44 1025.17 1025.02 1025.02 1025.18 1025.49 1025.96 1026.55 1027.22 1027.96 1028.71 1029.47 1030.19 1030.88 1031.52 1032.11 1032.66 1033.17 1033.64 1034.08 1034.48 1034.83 1035.13 1035.36 1035.52 1035.62 1035.64 1035.62 1035.55 1035.46 1035.37 1035.29 1035.23 1035.18 1035.15 1035.10 1035.05 1034.95 1034.82 1034.65
Thickness
5530 5524 5521 5524 5525 5526 5523 5520 5519 5524 5528 5527 5528 5532 5539 5538 5534 5533 5534 5534 5536 5537 5538 5538 5538 5539 5541 5543 5545 5547 5549 5550 5551 5551 5551 5551 5550 5549 5549 5549 5550 5551 5552 5552
5516 5515 5522 5521 5519 5517 5514 5511 5511 5515 5519 5518 5518 5525 5531 5530 5529 5529 5529 5529 5529 5528 5528 5528 5529 5530 5531 5533 5535 5537 5539 5539 5540 5541 5541 5541 5540 5540 5540 5540 5540 5541 5542 5543
5511 5515 5516 5513 5509 5508 5507 5504 5504 5504 5507 5508 5507 5518 5524 5526 5524 5524 5523 5522 5521 5521 5519 5519 5519 5520 5521 5522 5524 5527 5528 5529 5529 5530 5530 5530 5530 5530 5530 5530 5530 5530 5532 5533
5499 5505 5508 5505 5503 5503 5502 5502 5500 5498 5493 5490 5494 5494 5516 5518 5517 5520 5517 5514 5512 5511 5510 5510 5510 5510 5511 5512 5514 5516 5517 5518 5518 5519 5520 5520 5519 5519 5519 5519 5519 5520 5521 5522
5492 5496 5497 5497 5498 5496 5495 5496 5491 5490 5485 5479 5480 5478 5502 5507 5512 5515 5513 5508 5504 5502 5501 5500 5501 5501 5501 5502 5503 5505 5506 5507 5507 5507 5508 5507 5507 5507 5507 5509 5509 5510 5511 5512
5484 5487 5488 5490 5492 5489 5486 5482 5478 5470 5468 5465 5473 5471 5493 5498 5509 5510 5506 5502 5498 5495 5493 5491 5491 5491 5491 5492 5493 5494 5495 5495 5495 5495 5495 5495 5495 5495 5496 5497 5498 5499 5500 5501
5475 5479 5479 5481 5481 5480 5478 5469 5458 5454 5443 5456 5469 5469 5488 5501 5501 5501 5498 5493 5490 5486 5483 5482 5481 5481 5481 5481 5483 5483 5483 5483 5483 5483 5483 5483 5484 5484 5485 5485 5486 5487 5488 5489
5461 5468 5470 5469 5472 5468 5467 5466 5455 5448 5442 5450 5456 5461 5486 5492 5489 5487 5485 5483 5480 5476 5473 5472 5471 5470 5470 5471 5471 5472 5472 5472 5472 5472 5471 5471 5472 5472 5472 5473 5474 5474 5475 5477
5450 5458 5462 5462 5462 5461 5457 5452 5456 5441 5423 5424 5444 5453 5473 5482 5480 5477 5474 5472 5468 5465 5463 5462 5461 5460 5459 5459 5460 5460 5461 5461 5461 5460 5460 5460 5460 5460 5460 5461 5462 5462 5463 5464
5443 5441 5450 5449 5452 5449 5449 5443 5434 5431 5426 5427 5447 5455 5467 5477 5473 5468 5464 5460 5457 5454 5451 5451 5450 5449 5449 5448 5448 5448 5449 5449 5449 5448 5448 5448 5448 5448 5449 5449 5450 5450 5451 5452
5432 5429 5433 5433 5432 5436 5432 5430 5429 5423 5422 5423 5428 5454 5465 5468 5466 5460 5456 5453 5449 5445 5442 5440 5438 5438 5437 5437 5437 5437 5437 5437 5437 5436 5436 5436 5436 5436 5437 5437 5438 5438 5439 5440
5423 5416 5417 5422 5423 5424 5425 5425 5422 5421 5412 5411 5423 5448 5461 5455 5452 5448 5446 5444 5441 5435 5431 5429 5427 5426 5425 5425 5425 5425 5425 5424 5424 5424 5424 5423 5424 5424 5425 5425 5425 5426 5427 5428
5413 5406 5405 5416 5412 5408 5408 5411 5412 5408 5405 5401 5407 5438 5446 5439 5437 5436 5434 5431 5428 5424 5420 5417 5415 5415 5414 5412 5412 5412 5412 5412 5411 5411 5410 5410 5411 5412 5412 5412 5413 5413 5414 5415
5413 5400 5402 5412 5416 5404 5400 5403 5401 5397 5395 5397 5408 5430 5439 5432 5427 5425 5423 5420 5416 5413 5410 5408 5406 5404 5402 5401 5399 5399 5398 5398 5398 5398 5398 5398 5398 5399 5399 5399 5400 5400 5401 5402
5400 5390 5386 5392 5394 5390 5390 5397 5395 5392 5398 5400 5414 5417 5430 5425 5418 5414 5411 5407 5405 5403 5401 5399 5397 5394 5391 5389 5387 5386 5385 5385 5385 5384 5384 5384 5385 5385 5385 5386 5386 5387 5387 5388
5384 5378 5373 5377 5380 5377 5380 5393 5391 5390 5392 5393 5400 5409 5415 5409 5403 5400 5398 5397 5396 5395 5392 5390 5388 5386 5383 5380 5378 5375 5373 5372 5371 5371 5370 5370 5371 5371 5371 5371 5371 5372 5373 5373
5367 5364 5362 5365 5362 5363 5369 5393 5391 5388 5387 5389 5396 5409 5400 5394 5395 5393 5390 5387 5386 5386 5383 5380 5378 5376 5373 5369 5367 5363 5361 5359 5357 5357 5356 5356 5355 5356 5356 5356 5356 5357 5357 5358
5360 5355 5349 5344 5343 5355 5397 5395 5391 5387 5388 5385 5387 5387 5386 5385 5382 5378 5376 5374 5374 5374 5371 5369 5367 5364 5361 5357 5354 5351 5347 5345 5344 5343 5341 5341 5340 5340 5340 5340 5341 5341 5341 5342
5359 5353 5340 5334 5335 5349 5377 5380 5375 5374 5379 5378 5376 5375 5371 5368 5367 5367 5366 5364 5363 5361 5360 5358 5356 5353 5349 5345 5341 5338 5334 5332 5331 5329 5328 5326 5325 5324 5324 5325 5324 5325 5325 5326
5347 5346 5336 5325 5329 5338 5382 5371 5363 5364 5369 5372 5367 5365 5360 5358 5360 5367 5360 5354 5351 5349 5347 5345 5342 5339 5335 5332 5328 5325 5322 5320 5318 5317 5315 5312 5311 5310 5310 5310 5309 5309 5310 5311
5334 5332 5329 5322 5324 5342 5357 5349 5352 5357 5373 5364 5357 5355 5350 5350 5355 5353 5347 5342 5340 5337 5334 5332 5329 5326 5323 5319 5316 5313 5310 5308 5307 5304 5301 5299 5298 5296 5296 5295 5295 5295 5295 5296
5330 5324 5318 5315 5320 5342 5341 5336 5345 5354 5351 5347 5343 5341 5340 5339 5338 5335 5332 5330 5327 5324 5321 5319 5315 5313 5310 5306 5304 5301 5298 5297 5293 5290 5288 5286 5285 5283 5282 5281 5281 5281 5280 5281
5326 5332 5330 5332 5343 5338 5328 5331 5332 5331 5331 5330 5328 5327 5325 5325 5324 5322 5319 5317 5314 5312 5309 5306 5303 5300 5296 5293 5291 5289 5287 5283 5280 5277 5275 5274 5272 5271 5269 5268 5268 5267 5267 5268
5312 5310 5313 5313 5321 5320 5316 5315 5315 5314 5315 5316 5315 5313 5311 5310 5311 5309 5306 5304 5301 5298 5295 5292 5288 5286 5283 5280 5278 5276 5274 5270 5267 5265 5263 5261 5260 5259 5257 5256 5256 5256 5256 5255
5306 5297 5299 5303 5307 5305 5307 5304 5302 5301 5301 5300 5299 5298 5297 5296 5295 5293 5292 5290 5287 5285 5281 5278 5276 5274 5271 5268 5265 5262 5260 5257 5255 5253 5251 5249 5248 5247 5246 5245 5245 5245 5246 5246
5288 5288 5296 5308 5302 5296 5301 5295 5289 5287 5286 5284 5283 5283 5282 5281 5279 5278 5277 5275 5272 5270 5267 5264 5262 5261 5259 5256 5253 5250 5247 5245 5242 5241 5240 5238 5237 5236 5235 5234 5234 5234 5235 5237